period_start,C,m1,H,J0,J1,J2,J3,J4,J5,JA,JB,JC,JD,JJ,JK,JN,#
2015-11-10 00:04:29,0.48,5.24,1.00,13.07,17.96,21.90,15.21,52.39,1015.18,2069.99,2167.24,2065.70,2240.87,599.97,615.95,34.83,0000 0000 0000 0000 000000
2015-11-10 00:09:31,0.49,5.26,1.00,13.04,17.94,21.94,15.13,52.27,1015.17,2069.99,2163.08,2061.06,2236.36,599.69,615.49,34.88,0000 0000 0000 0000 000000
2015-11-10 00:14:32,0.50,5.29,1.00,13.02,17.94,21.96,15.21,52.36,1015.16,2069.99,2158.80,2056.52,2231.67,600.09,616.18,34.93,0000 0000 0000 0000 000000
2015-11-10 00:19:33,0.40,5.31,1.00,12.99,17.94,21.93,15.15,52.38,1015.13,2069.99,2155.06,2052.74,2227.65,600.01,615.90,34.98,0000 0000 0000 0000 000000
2015-11-10 00:24:35,0.39,5.34,1.00,12.96,17.92,21.90,15.18,52.71,1015.02,2069.99,2151.60,2049.34,2224.20,600.08,616.10,35.03,0000 0000 0000 0000 000000
2015-11-10 00:29:36,0.39,5.36,0.40,12.93,17.92,21.92,15.26,52.68,1014.73,2069.99,2147.99,2045.83,2220.28,599.97,615.74,35.08,0000 0000 0000 0000 000000
2015-11-10 00:34:37,0.45,5.37,0.00,12.91,17.91,21.89,15.25,52.80,1014.67,2069.99,2144.16,2041.94,2216.36,600.17,616.07,35.13,0000 0000 0000 0000 000000
2015-11-10 00:39:38,0.60,5.41,0.00,12.88,17.89,21.91,15.20,52.55,1014.67,2069.99,2139.45,2036.54,2211.01,600.09,616.05,35.18,0000 0000 0000 0000 000000
2015-11-10 00:44:40,0.55,5.43,0.00,12.84,17.89,21.89,15.22,52.73,1014.67,2070.00,2134.95,2031.53,2206.07,600.02,616.06,35.23,0000 0000 0000 0000 000000
2015-11-10 00:49:41,0.53,5.46,0.00,12.82,17.87,21.86,15.24,52.77,1014.66,2070.00,2130.14,2026.75,2200.84,600.15,616.25,35.28,0000 0000 0000 0000 000000
2015-11-10 00:54:42,0.48,5.49,0.00,12.78,17.86,21.85,15.25,52.50,1014.67,2070.01,2125.93,2022.51,2196.45,600.15,616.36,35.33,0000 0000 0000 0000 000000
2015-11-10 00:59:44,0.48,5.51,0.63,12.75,17.84,21.85,15.20,52.60,1014.64,2070.00,2121.93,2018.45,2192.23,599.89,616.02,35.38,0000 0000 0000 0000 000000
2015-11-10 01:04:45,0.53,5.54,1.00,12.72,17.82,21.81,15.16,52.71,1014.44,2070.03,2117.42,2013.98,2187.61,599.86,616.01,35.43,0000 0000 0000 0000 000000
2015-11-10 01:09:46,0.51,5.56,1.00,12.70,17.81,21.79,15.19,52.67,1014.35,2070.03,2112.94,2009.38,2182.81,599.69,615.77,35.48,0000 0000 0000 0000 000000
2015-11-10 01:14:48,0.57,5.59,1.00,12.67,17.79,21.76,15.22,52.67,1014.30,2070.05,2108.31,2004.39,2177.72,599.99,616.16,35.53,0000 0000 0000 0000 000000
2015-11-10 01:19:49,0.55,5.62,1.00,12.64,17.77,21.76,15.26,52.67,1014.47,2070.08,2103.57,1999.34,2172.60,600.06,616.36,35.59,0000 0000 0000 0000 000000
2015-11-10 01:24:50,0.29,5.64,1.00,12.62,17.75,21.70,15.13,52.59,1014.31,2070.19,2100.65,1996.74,2169.68,599.84,616.17,35.64,0000 0000 0000 0000 000000
2015-11-10 01:29:52,0.40,5.66,0.37,12.59,17.73,21.68,15.25,52.73,1014.22,2070.50,2097.68,1993.73,2166.71,599.66,615.98,35.69,0000 0000 0000 0000 000000
2015-11-10 01:34:53,0.40,5.68,0.00,12.57,17.72,21.66,15.28,52.65,1014.18,2070.77,2094.44,1990.68,2163.63,600.41,616.73,35.74,0000 0000 0000 0000 000000
2015-11-10 01:39:54,0.37,5.70,0.00,12.54,17.69,21.68,15.22,52.65,1014.18,2070.90,2091.21,1987.79,2160.22,599.84,616.24,35.79,0000 0000 0000 0000 000000
2015-11-10 01:44:56,0.35,5.72,0.00,12.53,17.68,21.63,15.22,52.56,1014.18,2070.95,2088.00,1984.96,2156.76,599.71,616.08,35.84,0000 0000 0000 0000 000000
2015-11-10 01:49:58,0.27,5.73,0.00,12.50,17.66,21.61,15.15,52.52,1014.16,2070.98,2085.15,1982.99,2154.27,599.75,616.18,35.89,0000 0000 0000 0000 000000
2015-11-10 01:54:59,0.29,5.75,0.00,12.48,17.64,21.59,15.23,52.67,1014.05,2070.98,2082.53,1980.92,2151.89,599.89,616.28,35.94,0000 0000 0000 0000 000000
2015-11-10 02:00:00,0.36,5.76,0.00,12.47,17.62,21.53,15.19,52.66,1013.93,2070.99,2079.50,1978.08,2148.99,599.84,616.26,35.99,0000 0000 0000 0000 000000
2015-11-10 02:05:01,0.28,5.78,0.00,12.45,17.60,21.52,15.23,52.52,1013.87,2070.99,2076.87,1975.24,2146.39,599.98,616.38,36.04,0000 0000 0000 0000 000000
2015-11-10 02:10:03,0.43,5.80,0.00,12.44,17.58,21.52,15.23,52.69,1013.77,2070.99,2073.40,1972.00,2142.91,599.90,616.24,36.09,0000 0000 0000 0000 000000
2015-11-10 02:15:04,0.31,5.82,0.00,12.42,17.57,21.51,15.24,52.63,1013.71,2071.01,2070.52,1969.28,2139.95,599.80,616.13,36.14,0000 0000 0000 0000 000000
2015-11-10 02:20:06,0.39,5.83,0.00,12.41,17.54,21.48,15.21,53.02,1013.69,2071.02,2067.39,1966.41,2136.95,599.86,616.26,36.19,0000 0000 0000 0000 000000
2015-11-10 02:25:07,0.43,5.86,0.00,12.39,17.53,21.47,15.17,52.94,1013.69,2071.04,2063.50,1962.81,2133.23,600.00,616.35,36.24,0000 0000 0000 0000 000000
2015-11-10 02:30:08,0.40,5.88,0.00,12.37,17.51,21.41,15.18,52.81,1013.65,2071.07,2059.83,1959.72,2129.92,599.50,615.99,36.29,0000 0000 0000 0000 000000
2015-11-10 02:35:10,0.42,5.90,0.00,12.35,17.49,21.38,15.09,52.90,1013.64,2071.27,2056.31,1956.69,2126.62,599.70,616.12,36.34,0000 0000 0000 0000 000000
2015-11-10 02:40:11,0.41,5.92,0.00,12.33,17.47,21.40,15.18,53.00,1013.67,2071.60,2052.97,1953.75,2123.37,599.78,616.34,36.39,0000 0000 0000 0000 000000
2015-11-10 02:45:12,0.42,5.94,0.00,12.32,17.45,21.36,15.21,52.81,1013.68,2071.90,2049.53,1950.71,2120.05,599.81,616.45,36.44,0000 0000 0000 0000 000000
2015-11-10 02:50:14,0.52,5.97,0.00,12.29,17.43,21.34,15.27,53.17,1013.69,2071.94,2045.69,1946.68,2115.77,600.11,616.72,36.49,0000 0000 0000 0000 000000
2015-11-10 02:55:15,0.45,5.99,0.00,12.28,17.42,21.31,15.23,52.84,1013.69,2071.96,2041.94,1943.05,2111.74,600.04,616.59,36.55,0000 0000 0000 0000 000000
2015-11-10 03:00:17,0.45,6.01,0.00,12.26,17.39,21.35,15.22,52.90,1013.68,2071.98,2038.24,1939.45,2108.07,599.83,616.43,36.60,0000 0000 0000 0000 000000
2015-11-10 03:05:18,0.49,6.04,0.00,12.24,17.38,21.35,15.24,52.94,1013.68,2071.99,2033.94,1935.43,2103.89,600.11,616.87,36.65,0000 0000 0000 0000 000000
2015-11-10 03:10:20,0.44,6.06,0.00,12.24,17.36,21.32,15.24,53.00,1013.61,2071.99,2030.45,1931.92,2100.32,600.16,616.91,36.70,0000 0000 0000 0000 000000
2015-11-10 03:15:21,0.48,6.08,0.00,12.22,17.34,21.30,15.20,53.05,1013.55,2071.99,2026.64,1928.02,2096.38,599.57,616.26,36.75,0000 0000 0000 0000 000000
2015-11-10 03:20:23,0.51,6.11,0.00,12.20,17.32,21.26,15.23,53.15,1013.41,2071.99,2022.44,1924.04,2092.35,600.00,616.63,36.80,0000 0000 0000 0000 000000
2015-11-10 03:25:24,0.51,6.14,0.00,12.19,17.30,21.21,15.26,52.98,1013.34,2072.01,2018.18,1919.66,2087.75,600.37,616.94,36.85,0000 0000 0000 0000 000000
2015-11-10 03:30:25,0.48,6.16,0.00,12.18,17.29,21.26,15.22,52.98,1013.32,2072.01,2014.44,1916.00,2083.94,600.23,616.82,36.90,0000 0000 0000 0000 000000
2015-11-10 03:35:27,0.59,6.19,0.00,12.17,17.27,21.20,15.22,52.83,1013.25,2072.06,2009.76,1911.41,2079.14,599.95,616.54,36.95,0000 0000 0000 0000 000000
2015-11-10 03:40:28,0.67,6.22,0.00,12.15,17.25,21.21,15.19,52.94,1013.28,2072.12,2004.82,1906.31,2073.79,600.13,616.72,37.00,0000 0000 0000 0000 000000
2015-11-10 03:45:29,0.64,6.25,0.00,12.14,17.23,21.15,15.27,52.99,1013.21,2072.50,2000.24,1901.65,2068.94,599.90,616.54,37.05,0000 0000 0000 0000 000000
2015-11-10 03:50:31,0.59,6.29,0.00,12.13,17.22,21.18,15.23,53.06,1013.21,2072.79,1995.65,1896.85,2063.79,600.21,616.91,37.10,0000 0000 0000 0000 000000
2015-11-10 03:55:32,0.55,6.31,0.00,12.11,17.19,21.15,15.24,53.09,1013.20,2072.91,1991.45,1892.73,2059.37,599.92,616.71,37.15,0000 0000 0000 0000 000000
2015-11-10 04:00:34,0.50,6.34,0.80,12.09,17.18,21.10,15.28,53.16,1013.20,2072.95,1987.54,1888.71,2055.30,600.04,616.92,37.20,0000 0000 0000 0000 000000
2015-11-10 04:05:35,0.53,6.37,1.00,12.09,17.16,21.09,15.22,52.98,1013.21,2072.97,1983.87,1884.39,2051.00,599.96,616.73,37.25,0000 0000 0000 0000 000000
2015-11-10 04:10:37,0.52,6.40,1.00,12.07,17.14,21.09,15.21,52.95,1013.20,2072.99,1979.78,1880.08,2046.91,600.03,616.75,37.30,0000 0000 0000 0000 000000
2015-11-10 04:15:38,0.41,6.42,1.00,12.07,17.13,21.10,15.23,53.13,1013.19,2072.99,1976.27,1876.74,2043.55,599.81,616.67,37.35,0000 0000 0000 0000 000000
2015-11-10 04:20:39,0.43,6.44,1.00,12.06,17.11,21.05,15.22,52.96,1013.17,2072.99,1973.05,1873.48,2040.37,600.11,616.84,37.40,0000 0000 0000 0000 000000
2015-11-10 04:25:41,0.42,6.46,1.00,12.04,17.09,21.03,15.17,52.92,1013.19,2072.99,1969.68,1870.19,2037.04,599.86,616.68,37.46,0000 0000 0000 0000 000000
2015-11-10 04:30:42,0.45,6.48,0.20,12.04,17.08,20.99,15.26,53.10,1013.12,2072.99,1966.15,1866.71,2033.40,599.88,616.78,37.51,0000 0000 0000 0000 000000
2015-11-10 04:35:43,0.49,6.51,0.00,12.04,17.07,20.99,15.25,53.19,1013.14,2073.00,1962.76,1863.11,2029.48,600.18,616.88,37.56,0000 0000 0000 0000 000000
2015-11-10 04:40:45,0.44,6.53,0.00,12.04,17.05,21.02,15.24,53.17,1013.07,2073.01,1959.18,1859.29,2025.60,600.17,616.92,37.61,0000 0000 0000 0000 000000
2015-11-10 04:45:46,0.44,6.55,0.00,12.03,17.04,21.02,15.25,53.20,1013.08,2073.03,1955.90,1855.88,2022.07,599.99,616.89,37.66,0000 0000 0000 0000 000000
2015-11-10 04:50:48,0.37,6.57,0.00,12.02,17.02,20.98,15.17,53.08,1013.18,2073.03,1952.87,1853.04,2018.96,599.53,616.39,37.71,0000 0000 0000 0000 000000
2015-11-10 04:55:49,0.35,6.59,0.00,12.02,17.02,20.97,15.25,53.21,1013.24,2073.04,1950.17,1850.44,2016.39,600.33,617.18,37.76,0000 0000 0000 0000 000000
2015-11-10 05:00:51,0.41,6.61,0.00,12.00,16.99,20.96,15.25,53.09,1013.51,2073.13,1947.35,1847.69,2013.35,600.24,617.33,37.81,0000 0000 0000 0000 000000
2015-11-10 05:05:52,0.41,6.63,0.00,12.00,16.99,20.95,15.23,52.78,1013.63,2073.36,1944.24,1844.74,2010.27,599.86,617.16,37.86,0000 0000 0000 0000 000000
2015-11-10 05:10:54,0.24,6.65,0.00,11.99,16.98,20.95,15.20,52.43,1013.59,2073.39,1941.91,1842.69,2008.03,600.03,617.24,37.91,0000 0000 0000 0000 000000
2015-11-10 05:15:55,0.34,6.66,0.00,12.02,16.97,20.91,15.23,52.42,1013.63,2073.52,1939.39,1840.54,2005.81,600.11,617.37,37.96,0000 0000 0000 0000 000000
2015-11-10 05:20:56,0.34,6.68,0.00,12.02,16.97,20.92,15.25,52.34,1013.64,2073.52,1936.60,1838.03,2003.05,600.17,617.37,38.01,0000 0000 0000 0000 000000
2015-11-10 05:25:58,0.29,6.70,0.00,12.04,16.96,20.88,15.24,52.23,1013.66,2073.69,1934.43,1835.90,2000.81,600.46,617.62,38.06,0000 0000 0000 0000 000000
2015-11-10 05:31:00,0.20,6.71,0.00,12.06,16.94,20.88,15.21,52.14,1013.72,2073.65,1932.61,1834.21,1999.02,599.73,616.97,38.11,0000 0000 0000 0000 000000
2015-11-10 05:36:01,0.23,6.72,0.00,12.07,16.94,20.91,15.24,52.18,1013.75,2073.49,1930.46,1832.57,1997.24,599.81,616.93,38.16,0000 0000 0000 0000 000000
2015-11-10 05:41:02,0.23,6.73,0.00,12.08,16.94,20.85,15.19,52.06,1013.95,2073.73,1928.56,1830.94,1995.52,599.98,617.20,38.21,0000 0000 0000 0000 000000
2015-11-10 05:46:03,0.17,6.74,0.00,12.11,16.94,20.88,15.26,51.98,1014.17,2073.89,1927.18,1829.88,1994.43,600.00,617.38,38.27,0000 0000 0000 0000 000000
2015-11-10 05:51:05,0.20,6.75,0.00,12.13,16.93,20.85,15.17,52.04,1014.16,2073.85,1925.50,1828.66,1993.10,599.90,617.16,38.32,0000 0000 0000 0000 000000
2015-11-10 05:56:06,0.16,6.76,0.00,12.16,16.93,20.85,15.09,52.07,1014.15,2073.94,1923.97,1827.53,1991.80,599.92,617.15,38.37,0000 0000 0000 0000 000000
2015-11-10 06:01:07,0.20,6.77,0.00,12.19,16.92,20.83,15.25,52.17,1014.09,2073.95,1922.40,1826.04,1990.17,600.43,617.48,38.42,0000 0000 0000 0000 000000
2015-11-10 06:06:08,0.21,6.78,0.00,12.22,16.93,20.85,15.10,52.18,1013.81,2073.97,1920.82,1824.89,1988.94,599.75,616.56,38.47,0000 0000 0000 0000 000000
2015-11-10 06:11:10,0.14,6.79,0.00,12.25,16.93,20.79,15.23,52.09,1013.69,2073.95,1919.41,1823.74,1987.62,600.18,616.79,38.52,0000 0000 0000 0000 000000
2015-11-10 06:16:11,0.12,6.80,0.00,12.28,16.94,20.80,15.19,51.97,1013.69,2073.96,1918.26,1822.83,1986.60,600.17,616.76,38.57,0000 0000 0000 0000 000000
2015-11-10 06:21:13,0.15,6.80,0.00,12.29,16.94,20.84,15.21,51.92,1013.86,2073.94,1916.76,1821.90,1985.62,600.32,617.01,38.62,0000 0000 0000 0000 000000
2015-11-10 06:26:14,0.14,6.81,0.00,12.33,16.94,20.86,15.16,51.82,1013.81,2073.91,1915.46,1820.94,1984.59,600.25,616.80,38.67,0000 0000 0000 0000 000000
2015-11-10 06:31:15,0.15,6.82,0.00,12.34,16.94,20.81,15.10,51.93,1013.69,2073.95,1913.99,1819.95,1983.54,599.80,616.25,38.72,0000 0000 0000 0000 000000
2015-11-10 06:36:17,0.18,6.83,0.00,12.35,16.94,20.80,15.21,51.98,1013.69,2073.93,1912.22,1818.76,1982.26,600.20,616.78,38.77,0000 0000 0000 0000 000000
2015-11-10 06:41:18,0.25,6.84,0.00,12.38,16.96,20.91,15.14,51.84,1013.69,2073.94,1909.99,1817.06,1980.35,599.92,616.32,38.82,0000 0000 0000 0000 000000
2015-11-10 06:46:20,0.17,6.85,0.00,12.39,16.97,20.82,15.15,51.88,1013.69,2073.86,1908.72,1816.02,1979.13,599.93,616.21,38.87,0000 0000 0000 0000 000000
2015-11-10 06:51:21,0.16,6.86,0.00,12.41,16.97,20.85,15.14,51.87,1013.67,2073.64,1907.12,1814.77,1977.76,599.70,616.01,38.92,0000 0000 0000 0000 000000
2015-11-10 06:56:22,0.17,6.87,0.00,12.44,16.98,20.85,15.18,51.96,1013.60,2073.43,1905.49,1813.49,1976.41,600.22,616.38,38.97,0000 0000 0000 0000 000000
2015-11-10 07:01:24,0.15,6.87,0.00,12.44,16.99,20.83,15.18,51.85,1013.36,2073.24,1903.84,1812.35,1975.04,600.11,616.27,39.02,0000 0000 0000 0000 000000
2015-11-10 07:06:25,0.15,6.88,0.00,12.48,16.99,20.84,15.19,51.88,1013.31,2073.17,1902.20,1811.11,1973.79,600.36,616.37,39.07,0000 0000 0000 0000 000000
2015-11-10 07:11:27,0.18,6.89,0.00,12.49,17.02,20.83,15.16,51.81,1013.29,2073.11,1900.63,1810.09,1972.53,600.46,616.42,39.12,0000 0000 0000 0000 000000
2015-11-10 07:16:28,0.14,6.90,0.00,12.50,17.02,20.87,15.15,51.83,1013.21,2073.08,1899.25,1809.01,1971.37,599.83,615.70,39.17,0000 0000 0000 0000 000000
2015-11-10 07:21:29,0.15,6.91,0.00,12.54,17.04,20.87,15.14,51.77,1013.42,2073.05,1897.85,1808.02,1970.29,599.88,615.82,39.22,0000 0000 0000 0000 000000
2015-11-10 07:26:31,0.15,6.92,0.00,12.54,17.05,20.88,15.16,51.67,1013.68,2073.01,1896.45,1807.02,1969.09,600.05,616.11,39.28,0000 0000 0000 0000 000000
2015-11-10 07:31:32,0.16,6.93,0.00,12.57,17.07,20.88,15.12,51.64,1013.73,2073.02,1894.94,1805.99,1967.96,599.62,615.64,39.33,0000 0000 0000 0000 000000
2015-11-10 07:36:33,0.19,6.93,0.00,12.59,17.09,20.89,15.16,51.80,1014.13,2073.01,1893.32,1804.90,1966.69,600.32,616.43,39.38,0000 0000 0000 0000 000000
2015-11-10 07:41:34,0.14,6.94,0.00,12.61,17.09,20.91,15.12,51.63,1014.23,2073.01,1891.84,1804.01,1965.63,600.08,616.31,39.43,0000 0000 0000 0000 000000
2015-11-10 07:46:36,0.14,6.95,0.00,12.64,17.12,20.90,15.15,51.86,1014.28,2073.01,1890.56,1803.10,1964.61,600.19,616.39,39.48,0000 0000 0000 0000 000000
2015-11-10 07:51:37,0.17,6.96,0.00,12.65,17.13,20.94,15.13,51.83,1014.27,2073.00,1888.94,1802.03,1963.41,599.62,615.83,39.53,0000 0000 0000 0000 000000
2015-11-10 07:56:38,0.15,6.96,0.00,12.68,17.14,20.92,15.14,51.65,1014.18,2073.00,1887.57,1801.04,1962.37,599.83,615.90,39.58,0000 0000 0000 0000 000000
2015-11-10 08:01:40,0.14,6.98,0.00,12.68,17.17,20.96,15.15,51.88,1014.18,2072.99,1886.09,1800.07,1961.16,600.10,616.09,39.63,0000 0000 0000 0000 000000
2015-11-10 08:06:41,0.18,6.98,0.00,12.71,17.18,20.99,15.18,52.10,1013.77,2072.99,1884.62,1799.00,1959.89,600.20,616.00,39.68,0000 0000 0000 0000 000000
2015-11-10 08:11:42,0.21,6.99,0.00,12.74,17.19,21.03,15.06,52.13,1013.64,2072.97,1882.95,1797.69,1958.49,599.81,615.43,39.73,0000 0000 0000 0000 000000
2015-11-10 08:16:43,0.27,7.01,0.00,12.72,17.22,21.03,15.16,52.33,1013.29,2072.96,1880.86,1795.89,1956.63,599.96,615.46,39.78,0000 0000 0000 0000 000000
2015-11-10 08:21:45,0.17,7.02,0.00,12.74,17.23,21.03,15.23,52.36,1013.54,2072.93,1879.19,1794.57,1955.05,600.16,615.67,39.83,0000 0000 0000 0000 000000
2015-11-10 08:26:46,0.14,7.02,0.00,12.76,17.24,21.08,15.16,51.97,1013.65,2072.71,1877.74,1793.42,1953.77,600.19,615.78,39.88,0000 0000 0000 0000 000000
2015-11-10 08:31:47,0.14,7.03,0.00,12.77,17.25,21.08,15.20,51.98,1013.69,2072.43,1876.18,1792.31,1952.50,600.15,615.80,39.93,0000 0000 0000 0000 000000
2015-11-10 08:36:48,0.14,7.04,0.00,12.78,17.27,21.16,15.16,51.79,1013.69,2072.30,1874.74,1791.37,1951.37,599.87,615.44,39.98,0000 0000 0000 0000 000000
2015-11-10 08:41:50,0.13,7.05,0.00,12.82,17.29,21.09,15.12,51.91,1013.68,2072.17,1873.37,1790.46,1950.26,600.04,615.45,40.03,0000 0000 0000 0000 000000
2015-11-10 08:46:51,0.17,7.05,0.00,12.82,17.30,21.11,15.15,51.64,1013.71,2072.06,1871.68,1789.34,1948.98,600.34,615.87,40.09,0000 0000 0000 0000 000000
2015-11-10 08:51:52,0.16,7.06,0.00,12.84,17.32,21.14,15.07,51.71,1013.69,2072.02,1870.08,1788.29,1947.85,599.66,615.02,40.14,0000 0000 0000 0000 000000
2015-11-10 08:56:54,0.17,7.07,0.00,12.87,17.33,21.16,15.14,51.82,1013.47,2072.01,1868.59,1787.31,1946.69,599.85,614.99,40.19,0000 0000 0000 0000 000000
2015-11-10 09:01:55,0.18,7.08,0.00,12.87,17.35,21.22,15.13,51.81,1013.04,2072.02,1866.92,1786.25,1945.45,599.82,614.87,40.24,0000 0000 0000 0000 000000
2015-11-10 09:06:56,0.16,7.09,0.00,12.88,17.37,21.22,15.12,51.94,1012.70,2072.01,1865.26,1785.12,1944.18,600.09,614.77,40.29,0000 0000 0000 0000 000000
2015-11-10 09:11:58,0.20,7.10,0.00,12.89,17.39,21.25,15.14,51.94,1012.42,2072.00,1863.51,1784.00,1942.77,600.06,614.61,40.34,0000 0000 0000 0000 000000
2015-11-10 09:16:59,0.20,7.11,0.00,12.89,17.40,21.16,15.11,52.13,1012.68,2072.00,1861.85,1782.81,1941.48,599.77,614.54,40.39,0000 0000 0000 0000 000000
2015-11-10 09:22:00,0.16,7.12,0.00,12.93,17.42,21.19,15.07,51.91,1012.70,2072.00,1860.37,1781.71,1940.28,599.91,614.54,40.44,0000 0000 0000 0000 000000
2015-11-10 09:27:02,0.21,7.13,0.00,12.93,17.44,21.26,15.10,52.22,1012.45,2071.99,1858.42,1780.58,1938.87,600.15,614.61,40.49,0000 0000 0000 0000 000000
2015-11-10 09:32:03,0.19,7.14,0.00,12.93,17.45,21.26,15.08,52.13,1012.27,2071.99,1856.81,1779.38,1937.52,599.73,614.18,40.54,0000 0000 0000 0000 000000
2015-11-10 09:37:04,0.17,7.15,0.00,12.95,17.47,21.25,15.10,52.13,1012.25,2071.98,1855.28,1777.99,1936.19,599.93,614.21,40.59,0000 0000 0000 0000 000000
2015-11-10 09:42:05,0.24,7.16,0.00,12.95,17.48,21.27,15.07,52.22,1012.20,2071.94,1853.52,1776.56,1934.58,599.84,614.01,40.64,0000 0000 0000 0000 000000
2015-11-10 09:47:07,0.25,7.17,0.00,12.97,17.49,21.37,15.10,52.23,1012.09,2071.80,1851.35,1774.72,1932.57,599.83,614.06,40.69,0000 0000 0000 0000 000000
2015-11-10 09:52:08,0.19,7.18,0.00,12.96,17.51,21.30,15.11,52.42,1011.81,2071.57,1849.56,1773.15,1931.02,599.99,614.04,40.74,0000 0000 0000 0000 000000
2015-11-10 09:57:10,0.18,7.19,0.00,12.97,17.52,21.39,15.14,52.31,1011.72,2071.25,1847.86,1771.70,1929.42,600.13,614.12,40.79,0000 0000 0000 0000 000000
2015-11-10 10:02:11,0.17,7.20,0.00,12.99,17.54,21.44,15.13,52.16,1011.63,2071.14,1846.24,1770.55,1928.11,600.03,613.74,40.84,0000 0000 0000 0000 000000
2015-11-10 10:07:12,0.16,7.21,0.00,12.97,17.54,21.40,15.16,52.29,1011.31,2071.09,1844.83,1769.51,1926.94,600.11,613.88,40.89,0000 0000 0000 0000 000000
2015-11-10 10:12:13,0.18,7.22,0.00,13.00,17.56,21.40,15.17,52.27,1011.50,2071.04,1843.24,1768.18,1925.50,600.13,613.86,40.94,0000 0000 0000 0000 000000
2015-11-10 10:17:14,0.22,7.23,0.00,13.01,17.57,21.52,15.10,52.40,1011.37,2071.03,1841.57,1766.86,1924.00,599.97,613.68,40.99,0000 0000 0000 0000 000000
2015-11-10 10:22:16,0.25,7.24,0.00,12.99,17.58,21.48,15.15,52.39,1011.28,2071.01,1839.52,1765.18,1922.08,600.03,613.72,41.04,0000 0000 0000 0000 000000
2015-11-10 10:27:17,0.25,7.25,0.00,13.01,17.59,21.45,15.05,52.35,1011.14,2071.00,1837.47,1763.62,1920.41,599.89,613.32,41.10,0000 0000 0000 0000 000000
2015-11-10 10:32:18,0.27,7.27,0.00,13.02,17.59,21.55,15.13,52.56,1010.77,2071.02,1835.32,1762.02,1918.70,599.88,613.15,41.15,0000 0000 0000 0000 000000
2015-11-10 10:37:19,0.42,7.29,0.00,13.02,17.62,21.44,15.10,52.67,1010.75,2071.01,1832.16,1759.35,1915.98,599.87,613.13,41.20,0000 0000 0000 0000 000000
2015-11-10 10:42:21,0.37,7.31,0.00,13.01,17.62,21.49,15.13,52.93,1010.67,2071.01,1829.17,1756.73,1913.14,600.01,613.41,41.25,0000 0000 0000 0000 000000
2015-11-10 10:47:22,0.30,7.32,0.00,13.02,17.63,21.54,15.19,52.91,1010.42,2071.00,1826.95,1754.83,1910.84,599.98,613.05,41.30,0000 0000 0000 0000 000000
2015-11-10 10:52:24,0.35,7.34,0.00,13.02,17.64,21.59,15.18,53.12,1010.31,2071.00,1824.35,1752.64,1908.34,600.31,613.37,41.35,0000 0000 0000 0000 000000
2015-11-10 10:57:25,0.33,7.36,0.00,13.02,17.65,21.54,15.14,53.01,1010.27,2071.00,1821.78,1750.22,1905.78,599.77,612.66,41.40,0000 0000 0000 0000 000000
2015-11-10 11:02:26,0.35,7.38,0.00,13.02,17.67,21.58,15.09,52.76,1010.27,2071.00,1819.29,1747.91,1903.36,599.90,612.95,41.45,0000 0000 0000 0000 000000
2015-11-10 11:07:27,0.41,7.40,0.00,13.02,17.67,21.61,15.13,52.88,1010.20,2071.00,1816.13,1745.37,1900.58,600.09,613.01,41.50,0000 0000 0000 0000 000000
2015-11-10 11:12:29,0.40,7.42,0.00,13.03,17.68,21.62,15.14,52.93,1010.17,2071.00,1813.11,1742.81,1897.74,600.06,612.99,41.55,0000 0000 0000 0000 000000
2015-11-10 11:17:30,0.57,7.44,0.00,13.02,17.69,21.60,15.10,52.96,1010.20,2071.00,1809.44,1739.33,1894.08,599.64,612.67,41.60,0000 0000 0000 0000 000000
2015-11-10 11:22:31,0.47,7.47,0.00,13.02,17.69,21.58,15.11,52.79,1010.27,2071.00,1805.96,1735.55,1890.27,600.02,613.05,41.65,0000 0000 0000 0000 000000
2015-11-10 11:27:32,0.34,7.49,0.00,13.02,17.70,21.67,15.09,52.88,1010.27,2070.99,1803.89,1733.02,1887.65,599.91,612.75,41.70,0000 0000 0000 0000 000000
2015-11-10 11:32:34,0.31,7.50,0.00,13.02,17.72,21.62,15.15,52.81,1010.24,2070.98,1801.91,1730.46,1885.11,600.17,613.14,41.75,0000 0000 0000 0000 000000
2015-11-10 11:37:35,0.33,7.52,0.00,13.01,17.72,21.61,15.13,52.90,1009.96,2070.98,1799.84,1728.25,1882.78,599.98,612.74,41.80,0000 0000 0000 0000 000000
2015-11-10 11:42:36,0.24,7.53,0.00,13.00,17.72,21.72,15.13,53.02,1009.78,2070.97,1798.07,1726.53,1880.96,599.96,612.71,41.85,0000 0000 0000 0000 000000
2015-11-10 11:47:38,0.19,7.55,0.00,13.00,17.74,21.68,15.15,52.99,1009.67,2070.97,1796.52,1725.14,1879.46,599.99,612.64,41.90,0000 0000 0000 0000 000000
2015-11-10 11:52:39,0.25,7.56,0.00,12.99,17.74,21.71,15.09,52.90,1009.55,2070.94,1794.75,1723.68,1877.65,599.72,612.23,41.96,0000 0000 0000 0000 000000
2015-11-10 11:57:41,0.29,7.57,0.00,12.99,17.74,21.73,15.16,53.02,1009.41,2070.93,1792.74,1721.86,1875.68,600.45,612.98,42.01,0000 0000 0000 0000 000000
2015-11-10 12:02:42,0.18,7.58,0.00,12.99,17.74,21.76,15.10,53.03,1009.71,2070.92,1791.32,1720.41,1874.20,599.98,612.66,42.06,0000 0000 0000 0000 000000
2015-11-10 12:07:43,0.19,7.59,0.00,12.99,17.76,21.71,15.09,52.83,1009.79,2070.87,1789.83,1719.02,1872.84,599.70,612.34,42.11,0000 0000 0000 0000 000000
2015-11-10 12:12:45,0.72,7.61,0.00,12.99,17.77,21.73,15.09,52.96,1009.81,2070.89,1785.64,1715.73,1869.47,600.11,612.86,42.16,0000 0000 0000 0000 000000
2015-11-10 12:17:46,0.14,7.64,0.00,13.00,17.77,21.76,15.12,52.81,1009.78,2070.94,1783.49,1713.63,1867.07,599.76,612.50,42.21,0000 0000 0000 0000 000000
2015-11-10 12:22:47,0.21,7.65,0.00,13.00,17.77,21.67,15.12,52.83,1009.73,2070.81,1782.33,1712.04,1865.53,600.22,612.92,42.26,0000 0000 0000 0000 000000
2015-11-10 12:27:49,0.39,7.66,0.00,13.01,17.77,21.71,15.12,53.08,1009.64,2070.77,1779.54,1709.79,1863.21,599.98,612.55,42.31,0000 0000 0000 0000 000000
2015-11-10 12:32:50,0.81,7.70,0.00,13.01,17.77,21.79,15.13,53.17,1009.44,2070.94,1773.92,1705.44,1858.60,599.98,612.40,42.36,0000 0000 0000 0000 000000
2015-11-10 12:37:51,0.86,7.74,0.00,13.01,17.79,21.78,15.16,53.17,1009.41,2070.98,1767.82,1700.82,1853.66,600.21,612.66,42.41,0000 0000 0000 0000 000000
2015-11-10 12:42:53,1.01,7.79,0.00,13.01,17.79,21.74,15.10,52.92,1009.47,2071.03,1759.67,1695.35,1847.52,599.92,612.41,42.46,0000 0000 0000 0000 000000
2015-11-10 12:47:54,0.32,7.82,0.00,13.02,17.79,21.73,15.16,52.58,1009.49,2071.14,1755.88,1692.29,1844.37,599.92,612.31,42.51,0000 0000 0000 0000 000000
2015-11-10 12:52:55,0.43,7.84,0.00,13.02,17.79,21.75,15.10,52.86,1009.37,2071.71,1753.00,1689.93,1841.69,600.08,612.52,42.56,0000 0000 0000 0000 000000
2015-11-10 12:57:56,0.42,7.87,0.27,13.04,17.79,21.74,15.09,52.72,1009.55,2071.96,1750.37,1687.50,1839.15,599.73,612.30,42.61,0000 0000 0000 0000 000000